Tracking 20092 objects as of 14-Dec-2019
HD Live streaming from Space Station
objects crossing your sky now

COSMOS 2251 DEB

Track COSMOS 2251 DEB now!
10-day predictions


NORAD ID: 35065
Int'l Code: 1993-036AHU
Perigee: 752.0 km
Apogee: 785.1 km
Inclination: 74.0 °
Period: 100.1 minutes
Semi major axis: 7139 km
RCS: 0.014 m2 (small)
Launch date: June 16, 1993
Source: Commonwealth of Independent States (former USSR) (CIS)
Launch site: PLESETSK MISSILE AND SPACE COMPLEX (PKMTR)

Note: This is SATELLITE DEBRIS
aabbcc
Your satellite tracking list
Your tracking list is empty




NASA's NSSDC Master Catalog

Two Line Element Set (TLE):
1 35065U 93036AHU 19346.55538368  .00000139  00000-0  53260-4 0  9999
2 35065  74.0236 295.4144 0023204 233.2934 126.6089 14.39122847558583
Source of the keplerian elements: AFSPC